[[{"header":{"parameterUnit":"m.s-1","parameterCategory":2,"la1":30.2991,"la2":30.254,"lo1":-89.0895,"lo2":-89.0444,"dy":0.0017,"dx":0.0017,"nx":28,"ny":28,"refTime":"2024-09-28T21:00:00:Z","depth":"0","parameterNumber":2,"parameterNumberName":"U-component_of_CURRENTS"},"data":[0,0,0,0,0,0,0,0,0,0,0,0,0,0,0,0,0,0,0,0,0,0,0,0,0,0,0,0,0,0,0,0,0,0,0,0,0,0,0,0,0,0,0,0,0,0,0,0,0,0,0,0,0,0,0,0,0,0,0.3102,0.3102,0,0.3122,0.3122,0.3122,0.3111,0.311,0.311,0.311,0.308,0.308,0.3079,0,0,0,0,0,0,0,0,0,0,0,0,0,0.304,0.3041,0.3102,0.3102,0.3103,0.3122,0.3122,0.3122,0.3111,0.311,0.311,0.311,0.308,0.308,0.3079,0,0,0,0,0,0,0,0,0,0,0,0,0,0.3061,0.3041,0.3102,0.3102,0.3102,0.3122,0.3122,0.3122,0.3111,0.311,0.311,0.311,0.3081,0.308,0.3079,0.3083,0,0,0.3077,0.3076,0,0,0,0,0,0,0,0,0.306,0.3063,0.3101,0.3102,0.3102,0.3116,0.309,0.3108,0.3111,0.3104,0.311,0.3109,0.309,0.3088,0.3089,0.3081,0.308,0.3077,0.3076,0.3076,0.3076,0,0,0,0,0,0,0,0.3059,0.3062,0.3107,0.3102,0.3103,0.3097,0.3099,0.3093,0.3096,0.3105,0.3105,0.3112,0.3089,0.309,0.3089,0.308,0.3077,0.3076,0.3075,0.3075,0.3135,0.3137,0,0,0,0,0,0,0.3064,0.3061,0.3106,0.3108,0.3083,0.3098,0.3101,0.311,0.3097,0.3096,0.3113,0.3112,0.3092,0.309,0.3087,0.3145,0.3076,0.3075,0.3075,0.3133,0.3135,0.3137,0,0,0,0,0,0,0.3062,0.3068,0.3105,0.3087,0.3092,0.31,0.311,0.311,0.3117,0.3104,0.3101,0.312,0.3091,0.3089,0.3099,0.3142,0.3075,0.3074,0.313,0.3134,0.3136,0.3225,0,0,0,0,0,0,0.3061,0.3067,0.3073,0.3088,0.3093,0.3127,0.3111,0.3111,0.3124,0.3123,0.311,0.3106,0.3091,0.3101,0.3098,0.3139,0.3073,0.3128,0.3132,0.3135,0.322,0.3231,0.3241,0,0,0,0,0,0.3058,0.3071,0.3073,0.3079,0.3102,0.3128,0.3131,0.3133,0.3125,0.3135,0.3131,0.3107,0.3124,0.3101,0.3098,0.314,0.3126,0.3131,0.3135,0.3215,0.3229,0.324,0,0,0,0,0,0,0.3047,0.3072,0.3074,0.3094,0.3115,0.3128,0.3138,0.3139,0.3144,0.3143,0.3123,0.312,0.3152,0.3132,0.3107,0.3171,0.3125,0.3129,0.3187,0.32,0.321,0.3232,0.3073,0,0,0,0,0,0.3049,0.3066,0.3089,0.3106,0.3118,0.3129,0.3138,0.3145,0.3153,0.3154,0.3147,0.3149,0.3169,0.3171,0.3177,0.32,0.3218,0.3229,0.324,0.3249,0.3267,0.3356,0.3377,0.3153,0.3153,0.3153,0,0,0.3049,0.3066,0.3074,0.3105,0.3118,0.3141,0.3133,0.3158,0.3179,0.315,0.3172,0.3182,0.3184,0.3222,0.3234,0.3208,0.3318,0.3255,0.3262,0.3276,0.3363,0.3385,0.3405,0.3156,0.3155,0.3155,0,0,0.3059,0.3075,0.3091,0.311,0.314,0.3155,0.3165,0.3187,0.3201,0.3225,0.3226,0.327,0.3264,0.3301,0.3312,0.3384,0.3373,0.3378,0.3445,0.3532,0.3552,0.3569,0.3602,0.3621,0.338,0.338,0.338,0,0.3056,0.3079,0.3101,0.3122,0.3143,0.3163,0.3189,0.321,0.3233,0.328,0.324,0.3328,0.3313,0.341,0.3426,0.3411,0.3436,0.3395,0.3548,0.3565,0.3582,0.3611,0.3632,0.3385,0.3385,0.3384,0.3384,0,0.3076,0.3095,0.311,0.3145,0.3174,0.32,0.3238,0.328,0.3298,0.3339,0.3434,0.3435,0.3495,0.3501,0.3472,0.3596,0.3567,0.3554,0.3517,0.361,0.3634,0.3654,0.3392,0.339,0.3389,0.3388,0,0,0.306,0.3112,0.3113,0.3138,0.3188,0.3215,0.3283,0.337,0.3443,0.348,0.3576,0.3624,0.3653,0.3668,0.3664,0.3725,0.3837,0.3682,0.3684,0.3716,0.4,0.3903,0.3914,0.3855,0.3859,0.3863,0.3963,0,0.3065,0.3097,0.3135,0.3181,0.3204,0.3271,0.3334,0.3425,0.3497,0.3593,0.3666,0.3736,0.3708,0.3733,0.3804,0.383,0.3897,0.3809,0.3903,0.3905,0.3811,0.3938,0.382,0.3894,0.3982,0.3986,0.3988,0,0.3062,0.3089,0.3123,0.3212,0.3233,0.3269,0.3409,0.3474,0.3638,0.3706,0.3831,0.3866,0.3976,0.3911,0.4058,0.4003,0.4013,0.4027,0.4031,0.3927,0.3848,0.382,0.3927,0.3887,0.4018,0.4016,0.4014,0,0.3022,0.3085,0.3112,0.3133,0.3233,0.3287,0.3354,0.3513,0.3614,0.3777,0.3862,0.4007,0.4064,0.4137,0.4154,0.4118,0.4289,0.4244,0.4179,0.4169,0.4082,0.4058,0.4166,0.4364,0.4364,0.4364,0.4364,0,0.3004,0.3028,0.309,0.3103,0.3181,0.3256,0.3382,0.349,0.3661,0.3782,0.3904,0.4004,0.4125,0.4218,0.4222,0.4267,0.4358,0.4224,0.4215,0.4103,0.4081,0.4047,0.3998,0.4368,0.4367,0.4366,0.4365,0,0.2951,0.2986,0.3028,0.3118,0.3158,0.3209,0.3386,0.3482,0.3644,0.3795,0.3843,0.405,0.4154,0.4246,0.436,0.4346,0.428,0.4375,0.4205,0.4173,0.4033,0.399,0.3875,0.3763,0.4328,0.4326,0.4325,0,0.2922,0.2931,0.3018,0.3056,0.3094,0.3194,0.3274,0.3456,0.3558,0.3799,0.3852,0.4022,0.4102,0.4259,0.4281,0.4317,0.4219,0.4224,0.4137,0.4044,0.3993,0.3803,0.3704,0.4051,0.4048,0.4045,0.4043,0,0.2881,0.2906,0.2945,0.3011,0.3076,0.3161,0.3271,0.3346,0.3536,0.3644,0.3764,0.3843,0.4023,0.4044,0.4133,0.4131,0.4037,0.4164,0.4152,0.3863,0.3586,0.3465,0.393,0.4019,0.4021,0.4023,0.4024,0.4025,0.2852,0.2858,0.2906,0.2958,0.3027,0.306,0.307,0.3185,0.3278,0.3377,0.3562,0.3634,0.3846,0.3949,0.3926,0.3895,0.3822,0.3835,0.3814,0.3648,0.3469,0.3846,0.3864,0.3866,0.3867,0.3868,0.3869,0,0.2803,0.2811,0.2857,0.2879,0.2876,0.2954,0.3016,0.2988,0.2975,0.316,0.323,0.3422,0.3508,0.3654,0.3734,0.3625,0.3433,0.3548,0.3315,0.3252,0.37,0.3622,0.3488,0.3488,0.3488,0.3488,0.3488,0.3488,0.2783,0.2772,0.2768,0.2707,0.271,0.2641,0.2619,0.26,0.2691,0.2756,0.2871,0.3037,0.339,0.3599,0.3579,0.3475,0.3237,0.3059,0.3044,0.3452,0.3479,0.3504,0.3425,0.3252,0.3251,0.2482,0.2476,0.2472]},{"header":{"parameterUnit":"m.s-1","parameterCategory":2,"la1":30.2991,"la2":30.254,"lo1":-89.0895,"lo2":-89.0444,"dy":0.0017,"dx":0.0017,"nx":28,"ny":28,"refTime":"2024-09-28T21:00:00:Z","depth":"0","parameterNumber":3,"parameterNumberName":"V-component_of_CURRENTS"},"data":[0,0,0,0,0,0,0,0,0,0,0,0,0,0,0,0,0,0,0,0,0,0,0,0,0,0,0,0,0,0,0,0,0,0,0,0,0,0,0,0,0,0,0,0,0,0,0,0,0,0,0,0,0,0,0,0,0,0,0.0252,0.0251,0,0.0178,0.0178,0.0177,0.0126,0.0126,0.0126,0.0126,0.0035,0.0033,0.0031,0,0,0,0,0,0,0,0,0,0,0,0,0,0.0279,0.0279,0.0252,0.0251,0.025,0.0179,0.0177,0.0176,0.0126,0.0126,0.0126,0.0126,0.0036,0.0033,0.0031,0,0,0,0,0,0,0,0,0,0,0,0,0,0.0241,0.0279,0.0252,0.0218,0.0214,0.0179,0.0177,0.0176,0.0126,0.0126,0.0126,0.0126,0.0037,0.0034,0.003,0.0016,0,0,0.002,0.0019,0,0,0,0,0,0,0,0,0.0243,0.024,0.0224,0.022,0.0216,0.0163,0.0154,0.0122,0.0127,0.0158,0.0126,0.0125,0.0078,0.0071,0.0056,0.0012,0.0008,0.002,0.0018,0.0016,0.0015,0,0,0,0,0,0,0,0.0246,0.0242,0.0221,0.0223,0.0218,0.0183,0.0178,0.0147,0.0119,0.0155,0.0152,0.0147,0.0075,0.0059,0.0053,0.0006,0.002,0.0017,0.0015,0.0014,-0.0051,-0.0051,0,0,0,0,0,0,0.0263,0.0245,0.0223,0.0219,0.0231,0.0183,0.0177,0.0179,0.0119,0.0111,0.0147,0.0145,0.0065,0.0057,0.005,0.0052,0.0016,0.0013,0.0011,-0.0051,-0.0051,-0.0051,0,0,0,0,0,0,0.0264,0.0262,0.0226,0.0231,0.0224,0.0184,0.0185,0.0178,0.0164,0.0114,0.0104,0.0143,0.0064,0.0054,0.0031,0.0047,0.0012,0.0009,-0.0052,-0.0051,-0.0051,0.0042,0,0,0,0,0,0,0.0265,0.0263,0.0269,0.0233,0.0225,0.0216,0.0186,0.0176,0.0162,0.0159,0.0107,0.0098,0.0063,0.0036,0.0027,0.0042,0.0006,-0.0052,-0.0051,-0.0051,0.0038,0.0045,0.0051,0,0,0,0,0,0.0266,0.0283,0.027,0.0267,0.0236,0.0217,0.0209,0.0177,0.0163,0.0163,0.0128,0.01,0.0033,0.0034,0.0024,0.0037,-0.0052,-0.0052,-0.0051,0.0035,0.0044,0.0051,0,0,0,0,0,0,0.03,0.0279,0.0264,0.0274,0.025,0.0209,0.0208,0.0184,0.0156,0.0155,0.0104,0.0093,0.0074,0.0042,0.0044,0.0018,-0.0015,-0.0016,0.0054,0.0062,0.0068,0.0098,0.0003,0,0,0,0,0,0.0311,0.0317,0.0287,0.0294,0.0287,0.0248,0.0236,0.0216,0.0186,0.0173,0.0137,0.0099,0.0068,0.0056,0.0019,0.001,-0.0019,0.0011,0.0017,0.0023,0.004,0.0013,0.002,-0.0049,-0.0049,-0.0049,0,0,0.0325,0.0315,0.0317,0.0301,0.028,0.0282,0.024,0.0232,0.0234,0.0169,0.0161,0.0117,0.0068,0.0055,0.0045,0.0033,0.0024,0.0024,0.003,0.0043,0.0015,0.0022,0.0028,-0.0048,-0.0048,-0.0048,0,0,0.036,0.0349,0.0365,0.0352,0.0332,0.0311,0.0313,0.0279,0.0265,0.0248,0.0203,0.0178,0.0125,0.0103,0.0082,0.0103,0.0054,0.0084,0.0149,0.0123,0.0129,0.0134,0.0099,0.01,0.0094,0.0094,0.0094,0,0.0377,0.0393,0.0366,0.0377,0.0376,0.0331,0.0349,0.0329,0.0291,0.0296,0.0258,0.0199,0.0152,0.0151,0.0152,0.0121,0.0092,0.0127,0.0134,0.0138,0.0142,0.0104,0.0104,0.0098,0.0098,0.0098,0.0097,0,0.0422,0.0432,0.0443,0.0444,0.044,0.0447,0.0422,0.042,0.0394,0.0376,0.0362,0.0294,0.0266,0.024,0.0199,0.0206,0.0171,0.0142,0.0122,0.0155,0.0112,0.0111,0.0105,0.0103,0.0102,0.0101,0,0,0.0463,0.0474,0.0476,0.0496,0.0478,0.0487,0.0498,0.0504,0.0541,0.0479,0.0507,0.0435,0.0402,0.0375,0.0319,0.0293,0.0279,0.0235,0.0231,0.0212,0.0215,0.0189,0.0184,0.025,0.0251,0.0251,0.0173,0,0.0505,0.0554,0.054,0.0585,0.061,0.0584,0.0608,0.0611,0.0602,0.0618,0.0549,0.0542,0.0452,0.0443,0.0402,0.0317,0.028,0.0302,0.0174,0.017,0.0155,0.0184,0.0188,0.0119,0.0171,0.0171,0.017,0,0.0549,0.0581,0.0635,0.0679,0.069,0.071,0.0763,0.0782,0.0791,0.0786,0.0762,0.0698,0.0649,0.0561,0.0437,0.0455,0.0343,0.0265,0.0259,0.0207,0.0143,0.0093,0.0114,-0.0037,0.0167,0.0167,0.0168,0,0.0605,0.0647,0.0699,0.0709,0.0748,0.078,0.0809,0.084,0.0896,0.0898,0.0923,0.0843,0.0815,0.0671,0.0492,0.0465,0.0352,0.0292,0.0161,0.0156,0.0122,0.0115,-0.0004,0.0199,0.0199,0.02,0.02,0,0.0653,0.0695,0.0735,0.0767,0.0858,0.0858,0.0964,0.0986,0.1041,0.1122,0.1017,0.1046,0.0841,0.0738,0.055,0.0365,0.0392,0.0184,0.0143,0.0152,0.0149,-0.0015,-0.013,0.0197,0.0197,0.0198,0.0198,0,0.0698,0.0716,0.079,0.0854,0.0886,0.0957,0.1073,0.1161,0.1187,0.1282,0.1282,0.1216,0.1078,0.0857,0.064,0.0463,0.0171,0.0191,0.0212,0.0175,-0.0097,-0.0207,-0.0375,-0.0456,0.0034,0.0033,0.0032,0,0.0722,0.0765,0.0866,0.0933,0.0964,0.1073,0.1166,0.1235,0.1334,0.1389,0.1443,0.1338,0.1281,0.0958,0.063,0.0311,0.0138,0.0109,0.0053,-0.0097,-0.025,-0.0307,-0.0367,0.0032,0.0031,0.003,0.003,0,0.0779,0.0813,0.0883,0.1022,0.1125,0.1253,0.1381,0.1482,0.1563,0.1624,0.168,0.1632,0.132,0.1019,0.0596,0.0361,-0.0004,0.0085,-0.0071,-0.0256,-0.0324,-0.0425,0.0057,0.0025,0.0025,0.0026,0.0026,0.0026,0.0826,0.0889,0.0988,0.1118,0.1249,0.1409,0.152,0.1649,0.1791,0.1893,0.1858,0.1838,0.1413,0.0833,0.0493,-0.0063,-0.0083,-0.0228,-0.0349,-0.039,-0.0467,0.0004,-0.0071,-0.0071,-0.0071,-0.0071,-0.0071,0,0.088,0.0959,0.1082,0.1238,0.1384,0.144,0.1648,0.176,0.191,0.2033,0.2066,0.1891,0.1331,0.0789,0.002,-0.0391,-0.054,-0.0612,-0.0696,-0.0738,-0.0316,-0.0312,-0.0439,-0.0439,-0.0438,-0.0438,-0.0438,-0.0438,0.0913,0.103,0.1089,0.1316,0.143,0.1621,0.1735,0.1895,0.2039,0.2192,0.2237,0.2247,0.1874,0.0422,-0.0511,-0.075,-0.1022,-0.1107,-0.1237,-0.0957,-0.093,-0.0903,-0.0923,-0.1175,-0.1177,-0.1575,-0.158,-0.1584]}],[{"header":{"parameterUnit":"m.s-1","parameterCategory":2,"la1":30.2991,"la2":30.254,"lo1":-89.0895,"lo2":-89.0444,"dy":0.0017,"dx":0.0017,"nx":28,"ny":28,"refTime":"2024-09-28T21:00:00:Z","depth":"2","parameterNumber":2,"parameterNumberName":"U-component_of_CURRENTS"},"data":[0,0,0,0,0,0,0,0,0,0,0,0,0,0,0,0,0,0,0,0,0,0,0,0,0,0,0,0,0,0,0,0,0,0,0,0,0,0,0,0,0,0,0,0,0,0,0,0,0,0,0,0,0,0,0,0,0,0,0.2735,0.2736,0,0.2757,0.2757,0.2757,0.2757,0.2757,0.2757,0.2757,0.2744,0.2744,0.2743,0,0,0,0,0,0,0,0,0,0,0,0,0,0.268,0.2681,0.2735,0.2736,0.2736,0.2757,0.2757,0.2757,0.2757,0.2757,0.2757,0.2757,0.2744,0.2744,0.2743,0,0,0,0,0,0,0,0,0,0,0,0,0,0.2701,0.2681,0.2735,0.2741,0.2742,0.2757,0.2757,0.2757,0.2757,0.2757,0.2757,0.2757,0.2744,0.2744,0.2743,0.2742,0,0,0.2742,0.2742,0,0,0,0,0,0,0,0,0.27,0.2702,0.2739,0.274,0.2741,0.2757,0.2733,0.2751,0.2757,0.2748,0.2757,0.2757,0.2747,0.2746,0.2747,0.2741,0.274,0.2742,0.2741,0.2741,0.2741,0,0,0,0,0,0,0,0.2698,0.2701,0.2741,0.274,0.2741,0.2738,0.274,0.2736,0.2745,0.2749,0.275,0.2757,0.2747,0.2747,0.2747,0.274,0.2742,0.2741,0.2741,0.2741,0.2797,0.2798,0,0,0,0,0,0,0.2702,0.27,0.274,0.2742,0.2723,0.2739,0.2742,0.275,0.2746,0.2746,0.2757,0.2756,0.2748,0.2747,0.2746,0.2805,0.2741,0.2741,0.2741,0.2795,0.2797,0.2799,0,0,0,0,0,0,0.2701,0.2705,0.274,0.2724,0.2728,0.274,0.2749,0.275,0.2765,0.2752,0.2751,0.2772,0.2748,0.2747,0.2762,0.2802,0.2741,0.274,0.2793,0.2795,0.2798,0.2883,0,0,0,0,0,0,0.2699,0.2705,0.2713,0.2724,0.2729,0.2762,0.2749,0.2751,0.277,0.277,0.2765,0.2763,0.2748,0.2763,0.2762,0.28,0.274,0.279,0.2794,0.2797,0.2878,0.2889,0.2897,0,0,0,0,0,0.2697,0.2709,0.2714,0.2719,0.274,0.2763,0.2766,0.2772,0.2771,0.2783,0.2783,0.2764,0.2783,0.2764,0.2762,0.2801,0.2789,0.2793,0.2797,0.2874,0.2887,0.2897,0,0,0,0,0,0,0.269,0.2711,0.2716,0.2735,0.2754,0.2765,0.2778,0.2783,0.2793,0.2796,0.2779,0.2778,0.2812,0.2792,0.2771,0.2828,0.2786,0.279,0.2845,0.2857,0.2866,0.2881,0.2739,0,0,0,0,0,0.2693,0.271,0.273,0.2747,0.2759,0.2772,0.2783,0.2791,0.2801,0.2806,0.2804,0.2808,0.2825,0.2828,0.2835,0.2856,0.2869,0.2883,0.2893,0.2901,0.2913,0.2995,0.3013,0.2812,0.2812,0.2812,0,0,0.2694,0.271,0.2719,0.2747,0.2762,0.2783,0.2778,0.2806,0.2826,0.2802,0.283,0.2842,0.284,0.2874,0.2887,0.2862,0.2961,0.2906,0.2913,0.292,0.3001,0.3021,0.3038,0.2814,0.2814,0.2814,0,0,0.2706,0.2723,0.274,0.2758,0.279,0.2802,0.2815,0.2838,0.2854,0.2881,0.2883,0.2926,0.2923,0.2951,0.2959,0.3025,0.3013,0.302,0.3075,0.3155,0.3173,0.3188,0.3212,0.3229,0.3019,0.302,0.302,0,0.2707,0.2729,0.2749,0.277,0.2791,0.2813,0.2838,0.2858,0.2884,0.2923,0.2899,0.2976,0.2969,0.3045,0.3061,0.305,0.307,0.3031,0.317,0.3185,0.32,0.3221,0.3239,0.3024,0.3024,0.3023,0.3023,0,0.2725,0.2747,0.2762,0.2795,0.2823,0.2849,0.2883,0.2921,0.2944,0.298,0.3066,0.3074,0.3126,0.3133,0.3107,0.3215,0.3185,0.3178,0.3143,0.3226,0.3241,0.3259,0.3031,0.3029,0.3028,0.3027,0,0,0.2712,0.2764,0.2767,0.2787,0.284,0.286,0.292,0.2992,0.3052,0.3094,0.3181,0.3224,0.3257,0.3268,0.3267,0.3322,0.3426,0.3288,0.329,0.3314,0.357,0.3466,0.3474,0.3448,0.3452,0.3455,0.3532,0,0.2719,0.2752,0.2787,0.2827,0.2849,0.2905,0.2962,0.3038,0.3101,0.3189,0.3256,0.333,0.33,0.3334,0.3393,0.3423,0.3478,0.3403,0.3482,0.3484,0.3386,0.3494,0.3247,0.3288,0.3548,0.3551,0.3553,0,0.2719,0.2744,0.278,0.2852,0.2871,0.2905,0.3019,0.3077,0.322,0.3283,0.3393,0.3437,0.3539,0.3491,0.3612,0.3564,0.3576,0.359,0.3594,0.3482,0.3414,0.3251,0.331,0.3581,0.3579,0.3577,0.3575,0,0.2682,0.2738,0.2766,0.2784,0.2872,0.2917,0.2979,0.3114,0.3204,0.3355,0.3436,0.3561,0.3628,0.3689,0.3703,0.3675,0.3812,0.3783,0.3705,0.3695,0.3492,0.3458,0.3885,0.3885,0.3885,0.3885,0.3884,0,0.2667,0.2687,0.2747,0.2759,0.2828,0.2898,0.301,0.3098,0.3258,0.3364,0.3481,0.3566,0.3686,0.3762,0.3761,0.378,0.3871,0.3739,0.3731,0.351,0.3478,0.3734,0.3715,0.3887,0.3887,0.3886,0.3886,0,0.262,0.2657,0.2692,0.2773,0.2811,0.2858,0.3025,0.3104,0.3257,0.3393,0.3448,0.3622,0.371,0.3788,0.3886,0.3849,0.3876,0.3855,0.3558,0.3513,0.3686,0.3671,0.3798,0.3796,0.3794,0.3792,0.379,0,0.2596,0.2607,0.2686,0.2718,0.2755,0.2851,0.2925,0.3094,0.3177,0.3392,0.3435,0.3597,0.3658,0.3773,0.3767,0.3783,0.3841,0.3539,0.3453,0.371,0.3689,0.3677,0.3665,0.3207,0.3201,0.3196,0.3192,0,0.2559,0.2586,0.2617,0.2677,0.2736,0.2811,0.2913,0.2978,0.3151,0.3254,0.3355,0.3429,0.3562,0.3489,0.3537,0.3499,0.3519,0.3436,0.3829,0.3261,0.3158,0.3135,0.3142,0.3147,0.3152,0.3155,0.3157,0.3159,0.2533,0.2538,0.2579,0.2623,0.2683,0.2708,0.2723,0.2822,0.2912,0.2997,0.3156,0.3176,0.3263,0.3213,0.3123,0.3068,0.3299,0.316,0.3174,0.3194,0.3105,0.3004,0.2945,0.2948,0.2951,0.2954,0.2956,0,0.2486,0.2494,0.2527,0.2544,0.2536,0.2615,0.2665,0.2638,0.2637,0.2772,0.2839,0.2671,0.2665,0.2733,0.2603,0.2611,0.2568,0.2492,0.2425,0.2474,0.2517,0.2391,0.2043,0.2039,0.2036,0.2033,0,0,0.2465,0.245,0.2443,0.2381,0.2389,0.2332,0.2317,0.2294,0.2347,0.2318,0.2334,0.2561,0.2683,0.233,0.2302,0.215,0.228,0.2063,0.2811,0.2785,0.2823,0.2936,0.2803,0,0,0,0,0]},{"header":{"parameterUnit":"m.s-1","parameterCategory":2,"la1":30.2991,"la2":30.254,"lo1":-89.0895,"lo2":-89.0444,"dy":0.0017,"dx":0.0017,"nx":28,"ny":28,"refTime":"2024-09-28T21:00:00:Z","depth":"2","parameterNumber":3,"parameterNumberName":"V-component_of_CURRENTS"},"data":[0,0,0,0,0,0,0,0,0,0,0,0,0,0,0,0,0,0,0,0,0,0,0,0,0,0,0,0,0,0,0,0,0,0,0,0,0,0,0,0,0,0,0,0,0,0,0,0,0,0,0,0,0,0,0,0,0,0,0.0199,0.0199,0,0.0129,0.0128,0.0127,0.0084,0.0084,0.0084,0.0084,-0.0002,-0.0004,-0.0006,0,0,0,0,0,0,0,0,0,0,0,0,0,0.023,0.023,0.0199,0.0199,0.0198,0.0129,0.0128,0.0127,0.0084,0.0084,0.0084,0.0084,-0.0001,-0.0003,-0.0006,0,0,0,0,0,0,0,0,0,0,0,0,0,0.0192,0.023,0.0199,0.017,0.0166,0.013,0.0128,0.0127,0.0084,0.0084,0.0084,0.0084,0.0,-0.0003,-0.0006,-0.0025,0,0,-0.0017,-0.0018,0,0,0,0,0,0,0,0,0.0195,0.0191,0.0175,0.0172,0.0168,0.0117,0.0108,0.0076,0.0084,0.0113,0.0084,0.0084,0.0038,0.0031,0.0016,-0.0029,-0.0033,-0.0017,-0.0019,-0.002,-0.0021,0,0,0,0,0,0,0,0.0197,0.0193,0.017,0.0174,0.017,0.0137,0.0132,0.0101,0.0075,0.0111,0.0108,0.0103,0.0036,0.0019,0.0014,-0.0034,-0.0017,-0.002,-0.0022,-0.0023,-0.0098,-0.0098,0,0,0,0,0,0,0.0213,0.0196,0.0172,0.0168,0.0183,0.0137,0.0131,0.0132,0.0076,0.0068,0.0103,0.0101,0.0025,0.0018,0.0011,0.0007,-0.002,-0.0023,-0.0025,-0.0098,-0.0098,-0.0098,0,0,0,0,0,0,0.0214,0.0212,0.0175,0.0181,0.0175,0.0137,0.0138,0.0131,0.0119,0.0071,0.0062,0.01,0.0025,0.0015,-0.001,0.0002,-0.0025,-0.0028,-0.0098,-0.0098,-0.0098,-0.0015,0,0,0,0,0,0,0.0216,0.0213,0.0219,0.0183,0.0175,0.0163,0.0138,0.0129,0.0116,0.0113,0.0065,0.0056,0.0024,-0.0004,-0.0013,-0.0003,-0.0031,-0.0098,-0.0098,-0.0098,-0.0018,-0.0012,-0.0007,0,0,0,0,0,0.0217,0.0231,0.022,0.0217,0.0185,0.0164,0.0157,0.0128,0.0117,0.0116,0.0083,0.0058,-0.0011,-0.0007,-0.0017,-0.0007,-0.0098,-0.0098,-0.0098,-0.002,-0.0013,-0.0007,0,0,0,0,0,0,0.0248,0.0227,0.0214,0.0221,0.0198,0.0158,0.0156,0.0135,0.0107,0.0107,0.0059,0.0049,0.0029,-0.0003,0.0002,-0.0031,-0.0059,-0.0061,0.0004,0.0009,0.0015,0.0043,-0.0033,0,0,0,0,0,0.0258,0.0262,0.0233,0.0238,0.0231,0.0194,0.0183,0.0164,0.0135,0.0123,0.0089,0.0051,0.0019,0.0006,-0.003,-0.0044,-0.0074,-0.0047,-0.0042,-0.0037,-0.0022,-0.0055,-0.005,-0.0098,-0.0098,-0.0098,0,0,0.027,0.026,0.0261,0.0244,0.0225,0.0224,0.0187,0.0178,0.0178,0.0118,0.0109,0.0068,0.0018,0.0001,-0.0011,-0.0022,-0.0042,-0.0037,-0.0032,-0.002,-0.0054,-0.0049,-0.0045,-0.0098,-0.0098,-0.0098,0,0,0.03,0.029,0.0304,0.0291,0.0272,0.0251,0.0253,0.0219,0.0206,0.0187,0.0145,0.0118,0.0066,0.004,0.0017,0.003,-0.0016,0.0011,0.0066,0.0035,0.0039,0.0042,0.0005,0.0004,0.0018,0.0018,0.0018,0,0.0316,0.033,0.0304,0.0314,0.0312,0.0269,0.0284,0.0263,0.0225,0.0226,0.0196,0.0131,0.0088,0.0074,0.0075,0.0045,0.0015,0.005,0.0044,0.0046,0.0049,0.001,0.0008,0.0022,0.0022,0.0021,0.0021,0,0.0355,0.0364,0.0373,0.0374,0.0368,0.0372,0.0346,0.0342,0.0318,0.0297,0.0276,0.0212,0.018,0.0154,0.0116,0.0111,0.008,0.0054,0.0035,0.0059,0.0015,0.0012,0.0028,0.0026,0.0025,0.0024,0,0,0.0392,0.04,0.0403,0.042,0.0402,0.0407,0.0412,0.0411,0.0437,0.0379,0.0397,0.0325,0.0295,0.0267,0.0213,0.0181,0.016,0.013,0.0126,0.0107,0.0086,0.0055,0.0048,0.0132,0.0132,0.0132,0.0048,0,0.0429,0.0473,0.0459,0.0497,0.0519,0.0491,0.051,0.0505,0.0489,0.0496,0.0426,0.0416,0.0336,0.0327,0.0281,0.0196,0.0156,0.0185,0.0054,0.005,0.0032,0.0046,0.0062,-0.0012,0.0045,0.0044,0.0044,0,0.0469,0.0497,0.0545,0.0581,0.0589,0.0606,0.0643,0.0656,0.065,0.064,0.0609,0.055,0.0496,0.0422,0.029,0.0312,0.0209,0.0132,0.0126,0.0071,0.0015,-0.0027,-0.002,0.0038,0.0038,0.0039,0.0039,0,0.0521,0.0556,0.0603,0.0611,0.0642,0.0668,0.0692,0.0707,0.0752,0.074,0.0759,0.0671,0.0642,0.0503,0.0329,0.0313,0.0178,0.0135,0.0007,0.0003,-0.0021,-0.0026,0.0042,0.0042,0.0042,0.0042,0.0042,0,0.0565,0.0602,0.0637,0.0665,0.0746,0.0742,0.0833,0.0843,0.0883,0.0947,0.0846,0.0856,0.0661,0.055,0.0375,0.0187,0.0209,0.0024,-0.0015,0.0006,0.0004,0.0017,0.0015,0.0039,0.004,0.004,0.0041,0,0.0607,0.0623,0.0688,0.0743,0.0773,0.0837,0.0941,0.1012,0.1026,0.11,0.11,0.1012,0.0863,0.0649,0.0429,0.0264,0.0076,-0.0002,0.0033,-0.0001,-0.0092,-0.0089,-0.0145,-0.0147,-0.0148,-0.0149,-0.015,0,0.0628,0.0667,0.0759,0.082,0.0849,0.0949,0.1033,0.1088,0.1166,0.1191,0.123,0.1113,0.1036,0.0702,0.0396,0.0096,0.0059,-0.0086,-0.0116,-0.0076,-0.0109,-0.0103,-0.0099,-0.0124,-0.0125,-0.0125,-0.0126,0,0.068,0.0712,0.0775,0.0904,0.0998,0.1116,0.1228,0.1311,0.137,0.1414,0.1433,0.1373,0.1056,0.0757,0.0353,0.0142,-0.0037,-0.0107,-0.0067,-0.0075,-0.0062,-0.0092,-0.0087,-0.0131,-0.013,-0.013,-0.0129,-0.0129,0.0723,0.0782,0.0873,0.0994,0.1113,0.1254,0.1357,0.1463,0.158,0.1645,0.1584,0.1507,0.1164,0.0653,0.0287,-0.0085,-0.0069,-0.0202,-0.0198,-0.0194,-0.0172,-0.0161,-0.0245,-0.0246,-0.0246,-0.0246,-0.0246,0,0.0776,0.0849,0.0961,0.1103,0.1236,0.1292,0.147,0.1563,0.1687,0.1751,0.176,0.1433,0.1087,0.07,0.0147,-0.0189,-0.0215,-0.0298,-0.0251,-0.0244,-0.0238,-0.0217,-0.0304,-0.0305,-0.0306,-0.0307,0,0,0.0807,0.0915,0.097,0.1176,0.1284,0.1461,0.1564,0.1691,0.1781,0.1832,0.1804,0.1716,0.1231,0.0824,0.0353,0.0035,-0.0023,-0.0035,0.0045,0.0163,0.0173,-0.0154,-0.011,0,0,0,0,0]}],[{"header":{"parameterUnit":"m.s-1","parameterCategory":2,"la1":30.2991,"la2":30.254,"lo1":-89.0895,"lo2":-89.0444,"dy":0.0017,"dx":0.0017,"nx":28,"ny":28,"refTime":"2024-09-28T21:00:00:Z","depth":"4","parameterNumber":2,"parameterNumberName":"U-component_of_CURRENTS"},"data":[0,0,0,0,0,0,0,0,0,0,0,0,0,0,0,0,0,0,0,0,0,0,0,0,0,0,0,0,0,0,0,0,0,0,0,0,0,0,0,0,0,0,0,0,0,0,0,0,0,0,0,0,0,0,0,0,0,0,0.1721,0.1722,0,0.1777,0.1777,0.1778,0.1832,0.1832,0.1833,0.1834,0.1897,0.1898,0.1899,0,0,0,0,0,0,0,0,0,0,0,0,0,0.1643,0.1644,0.1721,0.1722,0.1723,0.1777,0.1777,0.1778,0.1831,0.1832,0.1833,0.1834,0.1897,0.1898,0.1899,0,0,0,0,0,0,0,0,0,0,0,0,0,0.1684,0.1644,0.1721,0.1757,0.1761,0.1777,0.1777,0.1778,0.1831,0.1832,0.1834,0.1835,0.1896,0.1898,0.1899,0.1881,0,0,0.1903,0.1903,0,0,0,0,0,0,0,0,0.1681,0.1686,0.1751,0.1755,0.1759,0.18,0.1773,0.1813,0.1831,0.1803,0.1834,0.1836,0.1865,0.1869,0.1874,0.1884,0.1887,0.1903,0.1904,0.1904,0.1905,0,0,0,0,0,0,0,0.1678,0.1684,0.1741,0.1752,0.1757,0.1765,0.1772,0.1781,0.1825,0.1805,0.181,0.1818,0.1868,0.1873,0.1876,0.1887,0.1903,0.1904,0.1905,0.1905,0.199,0.1991,0,0,0,0,0,0,0.1675,0.1681,0.1739,0.1743,0.1725,0.1765,0.1773,0.1784,0.1825,0.1833,0.1817,0.1821,0.187,0.1875,0.1879,0.1963,0.1904,0.1905,0.1906,0.1988,0.199,0.1992,0,0,0,0,0,0,0.1673,0.168,0.1737,0.1715,0.1723,0.1766,0.1777,0.1785,0.1831,0.1834,0.1842,0.1861,0.1871,0.1877,0.1924,0.1962,0.1906,0.1907,0.1987,0.1989,0.1991,0.2065,0,0,0,0,0,0,0.167,0.1678,0.1702,0.1715,0.1724,0.1774,0.1776,0.1785,0.1833,0.1839,0.1873,0.1878,0.1873,0.1922,0.1925,0.1963,0.1908,0.1985,0.1988,0.199,0.2061,0.2069,0.2077,0,0,0,0,0,0.1667,0.1688,0.1703,0.1711,0.175,0.1775,0.1782,0.1814,0.1834,0.186,0.1887,0.1879,0.1941,0.1924,0.1928,0.1966,0.1983,0.1987,0.199,0.2057,0.2068,0.2077,0,0,0,0,0,0,0.1668,0.1696,0.1713,0.1743,0.1772,0.1786,0.1818,0.1836,0.1876,0.1896,0.1898,0.1904,0.1962,0.1951,0.1932,0.1998,0.1961,0.1965,0.2011,0.2021,0.2029,0.2028,0.1909,0,0,0,0,0,0.1678,0.1706,0.1729,0.1759,0.1777,0.1805,0.1827,0.185,0.1878,0.19,0.1924,0.1948,0.1969,0.1987,0.2004,0.2037,0.2038,0.2064,0.2072,0.2079,0.208,0.213,0.2143,0.2002,0.2002,0.2002,0,0,0.1687,0.1708,0.1725,0.1763,0.179,0.1817,0.1823,0.187,0.1898,0.1898,0.1961,0.1984,0.1986,0.203,0.2053,0.2031,0.2118,0.2083,0.2089,0.2087,0.2134,0.2148,0.216,0.2005,0.2004,0.2004,0,0,0.1706,0.1741,0.1767,0.1794,0.1842,0.1855,0.1878,0.1918,0.1949,0.2001,0.2011,0.2055,0.2092,0.2098,0.2103,0.2162,0.2164,0.218,0.2218,0.2267,0.2279,0.2289,0.2303,0.2314,0.2179,0.2179,0.218,0,0.172,0.1752,0.1781,0.1811,0.1838,0.1877,0.1908,0.1937,0.1991,0.2023,0.2035,0.2117,0.2117,0.2163,0.2182,0.2181,0.2206,0.2182,0.2279,0.2289,0.2299,0.231,0.2321,0.2183,0.2183,0.2183,0.2182,0,0.1743,0.1785,0.1807,0.1855,0.1887,0.1926,0.1961,0.2013,0.2059,0.2088,0.2172,0.2188,0.2235,0.2244,0.2229,0.2301,0.2296,0.2289,0.2255,0.2317,0.2325,0.2336,0.2189,0.2188,0.2186,0.2185,0,0,0.1728,0.1808,0.1819,0.185,0.1917,0.1938,0.2002,0.2059,0.2111,0.2178,0.2245,0.2286,0.2321,0.2328,0.2333,0.2366,0.2442,0.2364,0.2365,0.2378,0.2548,0.2399,0.2395,0.2474,0.2477,0.2478,0.2524,0,0.1743,0.1799,0.1839,0.1898,0.1929,0.1989,0.2037,0.21,0.2164,0.2238,0.2284,0.2352,0.2344,0.2386,0.2423,0.2446,0.2476,0.2429,0.2484,0.2484,0.2345,0.2404,0.2486,0.2532,0.2534,0.2536,0.2537,0,0.1743,0.1784,0.1845,0.1922,0.1943,0.199,0.2086,0.2137,0.2241,0.2297,0.2387,0.2431,0.25,0.2481,0.2566,0.2551,0.2555,0.2561,0.2564,0.2403,0.2354,0.2457,0.2556,0.2554,0.2553,0.2552,0.2551,0,0.1697,0.1782,0.1833,0.186,0.1954,0.2007,0.2067,0.217,0.2228,0.2353,0.242,0.2511,0.2576,0.2617,0.2638,0.2625,0.2716,0.269,0.2555,0.2544,0.2631,0.262,0.2741,0.2741,0.2741,0.2741,0.2741,0,0.1674,0.1718,0.1825,0.1852,0.1921,0.1997,0.2087,0.2164,0.2282,0.2352,0.2459,0.2526,0.2624,0.2684,0.2679,0.2651,0.2755,0.2566,0.2552,0.2659,0.265,0.2638,0.2626,0.2742,0.2742,0.2742,0.2741,0,0.1613,0.1686,0.175,0.1863,0.1905,0.1959,0.2096,0.2144,0.2283,0.2383,0.2433,0.2574,0.2653,0.2712,0.2773,0.269,0.2677,0.2635,0.2742,0.2733,0.2457,0.2449,0.2483,0.2478,0.2474,0.247,0.2468,0,0.1583,0.1615,0.1746,0.1783,0.1845,0.1939,0.199,0.2132,0.2187,0.2388,0.2414,0.256,0.263,0.2598,0.2668,0.2652,0.2617,0.258,0.2511,0.2451,0.2435,0.2433,0.2429,0.2461,0.246,0.2459,0.2458,0,0.1528,0.1596,0.1649,0.1722,0.1787,0.1847,0.1943,0.1975,0.2131,0.2277,0.2347,0.239,0.2472,0.2507,0.2519,0.2499,0.2588,0.2537,0.2544,0.2479,0.2426,0.2413,0.2415,0.2444,0.2446,0.2447,0.2448,0,0.1495,0.1515,0.159,0.1639,0.1709,0.1729,0.1796,0.1858,0.1937,0.2153,0.2173,0.232,0.2457,0.2429,0.2438,0.2414,0.2368,0.2267,0.2287,0.2304,0.2222,0.2126,0.2046,0,0,0,0,0,0.1451,0.1456,0.1492,0.1536,0.1592,0.1639,0.1741,0.1809,0.1968,0.1964,0.2067,0.213,0.2171,0.2246,0.2183,0.2346,0.2368,0.226,0.2261,0.2367,0.2383,0.2302,0,0,0,0,0,0,0.1418,0.1458,0.1457,0.1433,0.1442,0.1492,0.1556,0.1663,0.1673,0.1846,0.1881,0.2006,0.2076,0.2195,0.215,0.2167,0.2121,0.235,0.2344,0.2358,0.2372,0.2385,0.2307,0,0,0,0,0]},{"header":{"parameterUnit":"m.s-1","parameterCategory":2,"la1":30.2991,"la2":30.254,"lo1":-89.0895,"lo2":-89.0444,"dy":0.0017,"dx":0.0017,"nx":28,"ny":28,"refTime":"2024-09-28T21:00:00:Z","depth":"4","parameterNumber":3,"parameterNumberName":"V-component_of_CURRENTS"},"data":[0,0,0,0,0,0,0,0,0,0,0,0,0,0,0,0,0,0,0,0,0,0,0,0,0,0,0,0,0,0,0,0,0,0,0,0,0,0,0,0,0,0,0,0,0,0,0,0,0,0,0,0,0,0,0,0,0,0,0.0131,0.013,0,0.0083,0.0082,0.0081,0.0058,0.0058,0.0058,0.0059,-0.0007,-0.0008,-0.001,0,0,0,0,0,0,0,0,0,0,0,0,0,0.0155,0.0155,0.0131,0.013,0.013,0.0083,0.0082,0.0081,0.0058,0.0058,0.0058,0.0059,-0.0006,-0.0008,-0.001,0,0,0,0,0,0,0,0,0,0,0,0,0,0.0129,0.0155,0.0131,0.0114,0.0112,0.0083,0.0082,0.0081,0.0058,0.0058,0.0058,0.0059,-0.0005,-0.0008,-0.0011,-0.0032,0,0,-0.0019,-0.002,0,0,0,0,0,0,0,0,0.013,0.0128,0.0117,0.0115,0.0113,0.0078,0.0067,0.0043,0.0058,0.0077,0.0059,0.0059,0.0021,0.0016,0.0005,-0.0035,-0.0038,-0.0019,-0.0021,-0.0022,-0.0023,0,0,0,0,0,0,0,0.0132,0.0129,0.011,0.0116,0.0114,0.0092,0.0089,0.0062,0.0047,0.0075,0.0074,0.0071,0.0019,0.0007,0.0003,-0.0039,-0.0019,-0.0022,-0.0024,-0.0025,-0.0102,-0.0102,0,0,0,0,0,0,0.0143,0.0131,0.0112,0.0109,0.0123,0.0092,0.0088,0.0088,0.0048,0.0042,0.007,0.007,0.0012,0.0006,0.0001,-0.0012,-0.0022,-0.0025,-0.0027,-0.0101,-0.0102,-0.0102,0,0,0,0,0,0,0.0144,0.0142,0.0114,0.012,0.0115,0.0092,0.0091,0.0087,0.008,0.0044,0.0038,0.0069,0.0012,0.0005,-0.0019,-0.0015,-0.0026,-0.0029,-0.0101,-0.0102,-0.0102,-0.0047,0,0,0,0,0,0,0.0145,0.0142,0.0147,0.0121,0.0115,0.0104,0.0091,0.0086,0.0078,0.0076,0.0041,0.0035,0.0012,-0.0014,-0.0021,-0.0019,-0.0031,-0.0101,-0.0101,-0.0102,-0.0048,-0.0045,-0.0043,0,0,0,0,0,0.0146,0.0153,0.0148,0.0146,0.0122,0.0105,0.01,0.0082,0.0078,0.0077,0.0052,0.0036,-0.0024,-0.0017,-0.0025,-0.0023,-0.01,-0.0101,-0.0102,-0.0049,-0.0046,-0.0043,0,0,0,0,0,0,0.0165,0.0151,0.0145,0.0147,0.0131,0.0101,0.0101,0.0087,0.0066,0.0067,0.0033,0.0025,0.0005,-0.002,-0.0011,-0.005,-0.0066,-0.0068,-0.0023,-0.002,-0.0018,0.0002,-0.0033,0,0,0,0,0,0.0172,0.0176,0.0154,0.0157,0.0152,0.0128,0.0119,0.0107,0.0085,0.0076,0.0051,0.0021,-0.0007,-0.002,-0.005,-0.0068,-0.0096,-0.0075,-0.0073,-0.007,-0.0062,-0.0101,-0.0101,-0.0105,-0.0105,-0.0105,0,0,0.0179,0.0173,0.0175,0.0161,0.0149,0.0147,0.0123,0.0116,0.0113,0.0072,0.0063,0.003,-0.0011,-0.0032,-0.0044,-0.005,-0.0086,-0.0071,-0.0069,-0.0062,-0.0102,-0.0102,-0.0101,-0.0106,-0.0106,-0.0106,0,0,0.0198,0.0192,0.0202,0.0193,0.0181,0.0165,0.0166,0.0141,0.0131,0.0114,0.0083,0.0055,0.0014,-0.0014,-0.0035,-0.0038,-0.0071,-0.005,-0.0019,-0.0057,-0.0056,-0.0056,-0.0093,-0.0097,-0.0047,-0.0047,-0.0047,0,0.0208,0.0218,0.0201,0.0208,0.0207,0.0178,0.0186,0.0169,0.0139,0.0136,0.012,0.0058,0.0023,-0.0004,-0.0007,-0.003,-0.0056,-0.0023,-0.0052,-0.0052,-0.0053,-0.0091,-0.0096,-0.0045,-0.0045,-0.0045,-0.0045,0,0.0232,0.0241,0.0246,0.0248,0.0243,0.0245,0.0224,0.0219,0.0203,0.0183,0.0156,0.0102,0.007,0.0047,0.0019,-0.0005,-0.0024,-0.0042,-0.0053,-0.0049,-0.009,-0.0095,-0.0041,-0.0042,-0.0043,-0.0043,0,0,0.0253,0.0263,0.0266,0.028,0.0267,0.0269,0.0268,0.026,0.0271,0.0227,0.0225,0.0165,0.0139,0.0113,0.0069,0.0031,-0.0005,-0.0002,-0.0006,-0.0027,-0.0088,-0.009,-0.0097,-0.0026,-0.0027,-0.0027,-0.0115,0,0.0278,0.0309,0.0301,0.0328,0.0343,0.0324,0.0332,0.0322,0.0303,0.0292,0.0231,0.021,0.0162,0.0149,0.0103,0.0023,-0.0017,0.0021,-0.0099,-0.0103,-0.0095,-0.0103,-0.0029,-0.0119,-0.0121,-0.0122,-0.0122,0,0.0302,0.0323,0.0358,0.0384,0.039,0.0403,0.042,0.0423,0.0398,0.0382,0.0346,0.0295,0.0234,0.019,0.0065,0.0093,0.0012,-0.0055,-0.006,-0.0083,-0.0115,-0.0127,-0.0133,-0.0133,-0.0132,-0.0131,-0.013,0,0.0332,0.0362,0.0396,0.0403,0.0425,0.0446,0.0463,0.0458,0.0477,0.0444,0.0445,0.0359,0.0323,0.021,0.0069,0.0069,-0.0076,-0.0095,-0.0175,-0.0177,-0.0172,-0.0171,-0.0182,-0.0182,-0.0182,-0.0182,-0.0181,0,0.0357,0.0386,0.0422,0.0443,0.0502,0.0499,0.0555,0.0556,0.0561,0.0586,0.0502,0.0489,0.0327,0.0221,0.0088,-0.006,-0.0063,-0.0168,-0.0198,-0.0148,-0.0144,-0.0177,-0.0175,-0.0185,-0.0184,-0.0184,-0.0183,0,0.0377,0.0396,0.0447,0.0494,0.0519,0.0565,0.0633,0.0667,0.0665,0.069,0.0684,0.0588,0.0455,0.028,0.0088,-0.0021,-0.0174,-0.0228,-0.0161,-0.0186,-0.0254,-0.0248,-0.0317,-0.0317,-0.0318,-0.0319,-0.0319,0,0.0386,0.0415,0.0495,0.0542,0.057,0.0643,0.0695,0.0723,0.0759,0.075,0.0759,0.0647,0.056,0.0296,0.0103,-0.0152,-0.019,-0.0273,-0.0265,-0.0245,-0.0267,-0.026,-0.0254,-0.032,-0.032,-0.032,-0.0321,0,0.041,0.0442,0.0491,0.059,0.066,0.0738,0.0814,0.085,0.0873,0.0868,0.0831,0.0689,0.0535,0.0316,0.0113,-0.0072,-0.0222,-0.028,-0.028,-0.0273,-0.025,-0.027,-0.0263,-0.0323,-0.0323,-0.0322,-0.0322,0,0.0433,0.0475,0.0547,0.0635,0.0727,0.0809,0.0846,0.089,0.0926,0.0912,0.0898,0.0726,0.0627,0.0357,0.0169,-0.0014,-0.0058,-0.012,-0.0129,-0.0129,-0.0055,0.0004,-0.0014,0,0,0,0,0,0.0455,0.0508,0.0587,0.0686,0.0776,0.0834,0.0913,0.0937,0.0961,0.0949,0.093,0.0788,0.0519,0.04,0.0222,0.014,-0.0105,-0.0079,-0.0184,-0.0335,-0.0333,-0.0278,0,0,0,0,0,0,0.0471,0.0547,0.0587,0.0712,0.0787,0.0888,0.0944,0.0958,0.0955,0.0948,0.0814,0.0744,0.0485,0.0631,0.0222,0.0165,0.0072,-0.0204,-0.0208,-0.0337,-0.0335,-0.0332,-0.0275,0,0,0,0,0]}]]